User: anonymous   Login
Location: Unspecified
(0.0000°N, 0.0000°E)
Time: 19:25:35
(UTC+00:00)
Language:

OPTUS 1C - Orbit

View from above orbital plane
View from above orbital plane
View from above satellite
View from above satellite

Ground track
Ground track

The orbit data is extracted from the following two-line orbital elements,

1 27831U 03028B   15210.51963911 -.00000155  00000-0  00000+0 0  9999
2 27831 000.0356 238.7059 0004494 269.7731 141.4417 01.00272336 44450
Epoch (UTC): 29 July 2015 12:28:16
Eccentricity: 0.0004494
inclination: 0.0356°
perigee height: 35767 km
apogee height: 35805 km
right ascension of ascending node: 238.7059°
argument of perigee: 269.7731°
revolutions per day: 1.00272336
mean anomaly at epoch: 141.4417°
orbit number at epoch: 4445

The dashed part of the orbit path shows where the satellite is in the earth's shadow,  

DLR